Location: Mladá Boleslav
(50.4134°N, 14.9084°E)
Time: 20:43:35
(UTC+02:00)

ESTCUBE 1 - Visible Passes

Search period start: 26 May 2024 00:00
Search period end: 05 June 2024 00:00
Orbit: 635 x 646 km, 97.8° (Epoch: 26 May)

Date Brightness Start Highest point End Pass type
(mag) Time Alt. Az. Time Alt. Az. Time Alt. Az.
26 May ? 22:42:54 12° S 22:46:51 54° W 22:51:15 10° NNW visible
27 May ? 23:06:51 11° SSW 23:10:43 32° W 23:14:45 10° NNW visible
28 May ? 21:53:27 10° SSE 21:57:47 54° ENE 22:02:09 10° N visible
28 May ? 23:31:22 10° SW 23:34:39 20° W 23:37:58 10° NW visible
29 May ? 22:17:08 11° SSE 22:21:27 88° E 22:25:58 10° NNW visible
29 May ? 23:56:51 10° WSW 23:58:40 12° W 00:00:30 10° WNW visible
30 May ? 22:41:04 11° S 22:45:13 55° W 22:49:38 10° NNW visible
31 May ? 23:05:01 10° SSW 23:09:02 33° W 23:13:07 10° NNW visible
01 Jun ? 21:51:48 10° SE 21:56:07 52° ENE 22:00:29 10° N visible
01 Jun ? 23:29:36 10° SW 23:32:58 21° W 23:36:21 10° NW visible
02 Jun ? 22:15:19 10° SSE 22:19:46 86° ENE 22:24:17 10° NNW visible
02 Jun ? 23:54:58 10° WSW 23:56:57 13° W 23:58:56 10° WNW visible
03 Jun ? 22:39:10 10° S 22:43:30 57° W 22:47:56 10° NNW visible
04 Jun ? 23:03:14 10° SSW 23:07:18 34° W 23:11:25 10° NNW visible
